Location: Newark
(59.8814°N, 10.8258°E)
Time: 13:40:11
(UTC+00:00)

Envisat - Pass Details

Date: 02 February 2020
Orbit: 764 x 766 km, 98.1° (Epoch: 24 February)

Event Time Altitude Azimuth Distance (km) Brightness Sun altitude
Rises 06:09:35 0° 17° (NNE) 3,249 6.3 -9.8°
Reaches altitude 10° 06:11:55 10° 20° (NNE) 2,318 5.5 -9.5°
Maximum altitude 06:17:01 70° 104° (ESE) 819 3.4 -8.9°
Drops below altitude 10° 06:22:05 10° 188° (S) 2,301 5.6 -8.3°
Sets 06:24:24 0° 191° (S) 3,224 6.4 -8.0°
